TimePDT,TemperatureF,Dew PointF,Humidity,Sea Level PressureIn,VisibilityMPH,Wind Direction,Wind SpeedMPH,Gust SpeedMPH,PrecipitationIn,Events,Conditions,WindDirDegrees,DateUTC
12:15 AM,60.8,51.8,72,30.04,10.0,West,12.7,-,N/A,,Clear,280,2013-07-10 07:15:00
12:35 AM,60.8,51.8,72,30.05,10.0,West,12.7,-,N/A,,Clear,280,2013-07-10 07:35:00
12:55 AM,60.8,51.8,72,30.04,10.0,West,12.7,-,N/A,,Clear,280,2013-07-10 07:55:00
1:15 AM,60.8,51.8,72,30.05,10.0,West,11.5,-,N/A,,Clear,280,2013-07-10 08:15:00
1:35 AM,59.0,51.8,77,30.04,10.0,WNW,11.5,-,N/A,,Clear,290,2013-07-10 08:35:00
1:55 AM,59.0,51.8,77,30.04,10.0,West,11.5,-,N/A,,Clear,280,2013-07-10 08:55:00
2:15 AM,57.2,51.8,82,30.04,10.0,West,12.7,-,N/A,,Clear,280,2013-07-10 09:15:00
2:35 AM,57.2,51.8,82,30.04,10.0,West,15.0,-,N/A,,Clear,280,2013-07-10 09:35:00
2:55 AM,57.2,51.8,82,30.04,10.0,West,13.8,-,N/A,,Clear,280,2013-07-10 09:55:00
3:15 AM,57.2,51.8,82,30.04,10.0,West,11.5,-,N/A,,Clear,280,2013-07-10 10:15:00
3:35 AM,55.4,51.8,88,30.04,10.0,West,12.7,-,N/A,,Clear,280,2013-07-10 10:35:00
3:55 AM,55.4,50.0,82,30.04,10.0,West,11.5,-,N/A,,Clear,280,2013-07-10 10:55:00
4:15 AM,55.4,50.0,82,30.05,10.0,WNW,10.4,-,N/A,,Clear,290,2013-07-10 11:15:00
4:35 AM,55.4,50.0,82,30.04,10.0,West,10.4,-,N/A,,Clear,280,2013-07-10 11:35:00
4:55 AM,55.4,50.0,82,30.05,10.0,WNW,11.5,-,N/A,,Clear,290,2013-07-10 11:55:00
5:15 AM,55.4,50.0,82,30.05,10.0,West,12.7,-,N/A,,Clear,280,2013-07-10 12:15:00
5:35 AM,55.4,50.0,82,30.05,10.0,West,11.5,-,N/A,,Clear,280,2013-07-10 12:35:00
5:55 AM,55.4,50.0,82,30.05,10.0,WNW,11.5,-,N/A,,Clear,290,2013-07-10 12:55:00
6:15 AM,55.4,50.0,82,30.06,10.0,WNW,11.5,-,N/A,,Clear,290,2013-07-10 13:15:00
6:35 AM,55.4,50.0,82,30.06,10.0,WNW,9.2,-,N/A,,Clear,300,2013-07-10 13:35:00
6:55 AM,55.4,50.0,82,30.06,10.0,WNW,10.4,-,N/A,,Clear,290,2013-07-10 13:55:00
7:15 AM,57.2,50.0,77,30.06,10.0,West,11.5,-,N/A,,Clear,280,2013-07-10 14:15:00
7:35 AM,59.0,51.8,77,30.07,10.0,WNW,9.2,-,N/A,,Clear,290,2013-07-10 14:35:00
7:55 AM,60.8,51.8,72,30.07,10.0,West,9.2,-,N/A,,Clear,280,2013-07-10 14:55:00
8:15 AM,62.6,51.8,68,30.08,10.0,West,9.2,-,N/A,,Clear,280,2013-07-10 15:15:00
8:35 AM,62.6,51.8,68,30.08,10.0,West,8.1,-,N/A,,Clear,280,2013-07-10 15:35:00
8:55 AM,64.4,51.8,64,30.08,10.0,WNW,5.8,-,N/A,,Clear,290,2013-07-10 15:55:00
9:15 AM,66.2,51.8,60,30.08,10.0,West,6.9,-,N/A,,Clear,280,2013-07-10 16:15:00
9:35 AM,66.2,51.8,60,30.07,10.0,Calm,Calm,-,N/A,,Clear,0,2013-07-10 16:35:00
9:55 AM,68.0,51.8,56,30.07,10.0,West,3.5,-,N/A,,Clear,260,2013-07-10 16:55:00
10:15 AM,69.8,51.8,53,30.06,10.0,WNW,9.2,-,N/A,,Clear,300,2013-07-10 17:15:00
10:35 AM,71.6,53.6,53,30.05,10.0,WNW,3.5,-,N/A,,Clear,290,2013-07-10 17:35:00
10:55 AM,73.4,51.8,47,30.05,10.0,NNW,6.9,-,N/A,,Clear,340,2013-07-10 17:55:00
11:15 AM,73.4,53.6,50,30.05,10.0,WNW,5.8,-,N/A,,Clear,290,2013-07-10 18:15:00
11:35 AM,75.2,53.6,47,30.05,10.0,Calm,Calm,-,N/A,,Clear,0,2013-07-10 18:35:00
11:55 AM,78.8,51.8,39,30.04,10.0,Calm,Calm,-,N/A,,Clear,0,2013-07-10 18:55:00
12:15 PM,77.0,53.6,44,30.03,10.0,West,3.5,-,N/A,,Clear,260,2013-07-10 19:15:00
12:35 PM,78.8,53.6,42,30.03,10.0,WSW,3.5,-,N/A,,Clear,240,2013-07-10 19:35:00
12:55 PM,80.6,53.6,39,30.02,10.0,North,4.6,-,N/A,,Clear,350,2013-07-10 19:55:00
1:15 PM,80.6,53.6,39,30.01,10.0,West,8.1,-,N/A,,Clear,280,2013-07-10 20:15:00
1:35 PM,80.6,53.6,39,30.01,10.0,Calm,Calm,-,N/A,,Clear,0,2013-07-10 20:35:00
1:55 PM,82.4,53.6,37,30.00,10.0,NNW,6.9,-,N/A,,Clear,330,2013-07-10 20:55:00
2:15 PM,84.2,55.4,37,29.99,10.0,Calm,Calm,-,N/A,,Clear,0,2013-07-10 21:15:00
2:35 PM,84.2,53.6,35,29.99,10.0,WNW,9.2,16.1,N/A,,Clear,300,2013-07-10 21:35:00
2:55 PM,86.0,53.6,33,29.98,10.0,WNW,6.9,-,N/A,,Clear,290,2013-07-10 21:55:00
3:15 PM,84.2,53.6,35,29.97,10.0,NW,8.1,-,N/A,,Clear,310,2013-07-10 22:15:00
3:35 PM,84.2,55.4,37,29.96,10.0,NW,13.8,17.3,N/A,,Clear,310,2013-07-10 22:35:00
3:55 PM,86.0,53.6,33,29.96,10.0,West,12.7,17.3,N/A,,Clear,270,2013-07-10 22:55:00
4:15 PM,86.0,53.6,33,29.96,10.0,West,13.8,-,N/A,,Clear,280,2013-07-10 23:15:00
4:35 PM,86.0,53.6,33,29.95,10.0,WNW,16.1,-,N/A,,Clear,300,2013-07-10 23:35:00
4:55 PM,84.2,53.6,35,29.94,10.0,WNW,18.4,-,N/A,,Clear,290,2013-07-10 23:55:00
5:15 PM,82.4,53.6,37,29.94,10.0,West,18.4,24.2,N/A,,Clear,280,2013-07-11 00:15:00
5:35 PM,82.4,53.6,37,29.94,10.0,West,17.3,-,N/A,,Clear,280,2013-07-11 00:35:00
5:55 PM,80.6,51.8,37,29.94,10.0,West,16.1,25.3,N/A,,Clear,280,2013-07-11 00:55:00
6:15 PM,80.6,51.8,37,29.94,10.0,WNW,17.3,21.9,N/A,,Clear,290,2013-07-11 01:15:00
6:35 PM,78.8,51.8,39,29.94,10.0,WNW,16.1,-,N/A,,Clear,290,2013-07-11 01:35:00
6:55 PM,75.2,51.8,44,29.94,10.0,West,18.4,-,N/A,,Clear,280,2013-07-11 01:55:00
7:15 PM,73.4,51.8,47,29.94,10.0,WNW,18.4,21.9,N/A,,Clear,290,2013-07-11 02:15:00
7:35 PM,71.6,51.8,50,29.94,10.0,West,17.3,-,N/A,,Clear,270,2013-07-11 02:35:00
7:55 PM,69.8,51.8,53,29.94,10.0,West,16.1,23.0,N/A,,Clear,280,2013-07-11 02:55:00
8:15 PM,68.0,50.0,52,29.95,10.0,West,19.6,28.8,N/A,,Clear,280,2013-07-11 03:15:00
8:35 PM,66.2,48.2,52,29.95,10.0,West,19.6,24.2,N/A,,Clear,270,2013-07-11 03:35:00
8:55 PM,64.4,48.2,56,29.96,10.0,West,16.1,-,N/A,,Clear,280,2013-07-11 03:55:00
9:15 PM,62.6,48.2,59,29.96,10.0,WNW,17.3,-,N/A,,Clear,290,2013-07-11 04:15:00
9:35 PM,60.8,46.4,59,29.97,10.0,West,17.3,-,N/A,,Clear,280,2013-07-11 04:35:00
9:55 PM,60.8,46.4,59,29.98,10.0,West,18.4,23.0,N/A,,Clear,280,2013-07-11 04:55:00
10:15 PM,59.0,46.4,63,29.98,10.0,West,18.4,21.9,N/A,,Clear,280,2013-07-11 05:15:00
10:35 PM,59.0,46.4,63,29.99,10.0,West,17.3,23.0,N/A,,Clear,280,2013-07-11 05:35:00
10:55 PM,57.2,46.4,67,30.00,10.0,West,17.3,21.9,N/A,,Clear,280,2013-07-11 05:55:00
11:15 PM,57.2,46.4,67,30.00,10.0,West,18.4,-,N/A,,Clear,280,2013-07-11 06:15:00
11:35 PM,57.2,44.6,63,30.01,10.0,West,16.1,21.9,N/A,,Clear,280,2013-07-11 06:35:00
11:55 PM,55.4,44.6,67,30.01,10.0,WNW,17.3,-,N/A,,Clear,290,2013-07-11 06:55:00